Brno, Czech Republic

11:22 PM CEST on June 23, 2017 (GMT +0200)
Turany

Weather History for LKTB - December, 2012

Change the Weather History Date:

Friday, December 7, 2012

  Actual Average Record
Temperature  
Mean Temperature 18 °F -  
Max Temperature 24 °F 34 °F - ()
Min Temperature 13 °F 26 °F - ()
Degree Days  
Heating Degree Days 46    
Moisture  
Dew Point 14 °F    
Average Humidity 79    
Maximum Humidity 86    
Minimum Humidity 57    
Precipitation  
Precipitation 0.00 in 0.03 in - ()
Sea Level Pressure  
Sea Level Pressure 29.92 in    
Wind  
Wind Speed 5 mph ()    
Max Wind Speed 17 mph    
Max Gust Speed -    
Visibility 6.4 miles    
Events Snow    
T = Trace of Precipitation, MM = Missing Value Source: Averaged Metar Reports

Daily Weather History Graph

Daily Weather History Graph

Search for Another Location

Airport or City:

Trip Planner

Search our weather history database for the weather conditions in past years. The results will help you decide how hot, cold, wet, or windy it might be!

Date:

Astronomy

Dec. 07, 2012 Rise Set
Actual Time 7:33 AM CET 3:55 PM CET
Civil Twilight 6:56 AM CET 4:32 PM CET
Nautical Twilight 6:16 AM CET 5:12 PM CET
Astronomical Twilight 5:37 AM CET 5:51 PM CET
Moon 12:02 AM CET (12/7) 12:12 PM CET (12/7)
Length of Visible Light 9h 35m
Length of Day
8h 21m
Last Quarter, 41% of the Moon is Illuminated
Dec 7
Last Quarter
Dec 13
New
Dec 20
First Quarter
Dec 28
Full
Jan 5
Last Quarter

Hourly Weather History & Observations

Time (CET) Temp. Windchill Dew Point Humidity Pressure Visibility Wind Dir Wind Speed Gust Speed Precip Events Conditions
12:00 AM 21.2 °F 16.4 °F 15.8 °F 80% 29.98 in 6.2 mi SW 3.5 mph - N/A   Partly Cloudy
12:30 AM 19.4 °F - 14.0 °F 80% 29.98 in 6.2 mi Variable 2.3 mph - N/A   Partly Cloudy
1:00 AM 23 °F - 14 °F 57% 30.04 in 9 mi WSW 4.5 mph - -   Scattered Clouds
1:00 AM 23.0 °F 18.4 °F 15.8 °F 74% 29.98 in - WSW 3.5 mph - N/A   Clear
1:30 AM 19.4 °F 14.3 °F 14.0 °F 80% 29.98 in - SW 3.5 mph - N/A   Clear
2:00 AM 17.6 °F 10.7 °F 14.0 °F 86% 29.98 in - WSW 4.6 mph - N/A   Clear
2:30 AM 17.6 °F 9.3 °F 14.0 °F 86% 29.98 in - SW 5.8 mph - N/A   Clear
3:00 AM 17.6 °F 12.3 °F 14.0 °F 86% 29.95 in - South 3.5 mph - N/A   Clear
3:30 AM 17.6 °F 10.7 °F 14.0 °F 86% 29.95 in 6.2 mi NE 4.6 mph - N/A   Partly Cloudy
4:00 AM 17.6 °F - 14.0 °F 86% 29.95 in 6.2 mi Variable 2.3 mph - N/A   Partly Cloudy
4:30 AM 17.6 °F - 12.2 °F 79% 29.95 in 6.2 mi Calm Calm - N/A   Partly Cloudy
5:00 AM 12.2 °F 4.3 °F 8.6 °F 85% 29.95 in - ENE 4.6 mph - N/A   Clear
5:30 AM 15.8 °F - 12.2 °F 86% 29.95 in - Variable 1.2 mph - N/A   Clear
6:00 AM 15.8 °F 10.2 °F 12.2 °F 86% 29.95 in - WNW 3.5 mph - N/A   Clear
6:30 AM 17.6 °F 10.7 °F 14.0 °F 86% 29.95 in - North 4.6 mph - N/A   Clear
7:00 AM 18 °F - 12 °F 66% 30.04 in 22 mi WNW 6.7 mph - -   Scattered Clouds
7:00 AM 17.6 °F 12.3 °F 14.0 °F 86% 29.95 in - WNW 3.5 mph - N/A   Clear
7:23 AM 15.8 °F 4.2 °F 12.2 °F 86% 29.95 in - WNW 9.2 mph - N/A   Clear
7:30 AM 15.8 °F 4.2 °F 12.2 °F 86% 29.95 in 6.2 mi WNW 9.2 mph - N/A   Partly Cloudy
8:00 AM 17.6 °F 7.3 °F 12.2 °F 79% 29.95 in 6.2 mi WNW 8.1 mph - N/A   Partly Cloudy
8:30 AM 15.8 °F - 12.2 °F 86% 29.95 in 6.2 mi Variable 2.3 mph - N/A   Partly Cloudy
9:00 AM 15.8 °F - 10.4 °F 79% 29.95 in 6.2 mi West 2.3 mph - N/A   Partly Cloudy
9:30 AM 15.8 °F - 12.2 °F 86% 29.95 in 6.2 mi NNE 2.3 mph - N/A   Partly Cloudy
10:00 AM 17.6 °F 12.3 °F 12.2 °F 79% 29.95 in 6.2 mi ENE 3.5 mph - N/A   Partly Cloudy
10:30 AM 19.4 °F 14.3 °F 14.0 °F 80% 29.95 in 6.2 mi ENE 3.5 mph - N/A   Partly Cloudy
11:00 AM 19.4 °F - 14.0 °F 80% 29.95 in 6.2 mi Variable 2.3 mph - N/A   Partly Cloudy
11:30 AM 21.2 °F - 15.8 °F 80% 29.92 in 6.2 mi Variable 1.2 mph - N/A   Partly Cloudy
12:00 PM 21.2 °F 16.4 °F 15.8 °F 80% 29.92 in 6.2 mi ENE 3.5 mph - N/A   Partly Cloudy
12:30 PM 23.0 °F 18.4 °F 15.8 °F 74% 29.92 in 6.2 mi ENE 3.5 mph - N/A   Partly Cloudy
1:00 PM 24 °F - 15 °F 57% 29.97 in 9 mi East 4.5 mph - -   Scattered Clouds
1:00 PM 23.0 °F 18.4 °F 15.8 °F 74% 29.89 in 6.2 mi ENE 3.5 mph - N/A   Partly Cloudy
1:30 PM 23.0 °F 18.4 °F 15.8 °F 74% 29.89 in 6.2 mi NE 3.5 mph - N/A   Partly Cloudy
2:00 PM 24.8 °F 17.9 °F 15.8 °F 69% 29.86 in 6.2 mi ENE 5.8 mph - N/A   Partly Cloudy
2:30 PM 23.0 °F 17.0 °F 15.8 °F 74% 29.86 in 6.2 mi East 4.6 mph - N/A   Partly Cloudy
3:00 PM 23.0 °F 15.8 °F 15.8 °F 74% 29.86 in 6.2 mi East 5.8 mph - N/A   Partly Cloudy
3:30 PM 23.0 °F 15.8 °F 15.8 °F 74% 29.86 in 6.2 mi ENE 5.8 mph - N/A   Partly Cloudy
4:00 PM 21.2 °F 12.6 °F 15.8 °F 80% 29.83 in 6.2 mi NE 6.9 mph - N/A   Partly Cloudy
4:30 PM 21.2 °F 13.6 °F 15.8 °F 80% 29.86 in 6.2 mi NE 5.8 mph - N/A   Partly Cloudy
5:00 PM 21.2 °F 11.7 °F 15.8 °F 80% 29.86 in - NE 8.1 mph - N/A   Clear
5:30 PM 19.4 °F 9.5 °F 14.0 °F 80% 29.86 in - ENE 8.1 mph - N/A   Clear
6:00 PM 21.2 °F 10.9 °F 15.8 °F 80% 29.83 in - NE 9.2 mph - N/A   Clear
6:30 PM 21.2 °F 11.7 °F 14.0 °F 74% 29.83 in 6.2 mi ENE 8.1 mph - N/A   Partly Cloudy
7:00 PM 16 °F - 10 °F 68% 29.94 in 25 mi ENE 6.7 mph - -   Scattered Clouds
7:00 PM 15.8 °F 6.1 °F 10.4 °F 79% 29.86 in 6.2 mi ENE 6.9 mph - N/A   Partly Cloudy
7:30 PM 19.4 °F 8.6 °F 14.0 °F 80% 29.86 in 6.2 mi ENE 9.2 mph - N/A   Partly Cloudy
8:00 PM 17.6 °F 5.7 °F 12.2 °F 79% 29.86 in 6.2 mi ENE 10.4 mph - N/A   Partly Cloudy
8:30 PM 19.4 °F 7.9 °F 15.8 °F 86% 29.86 in 6.2 mi ENE 10.4 mph - N/A   Mostly Cloudy
9:00 PM 19.4 °F 6.6 °F 15.8 °F 86% 29.86 in 6.2 mi ENE 12.7 mph - N/A   Mostly Cloudy
9:30 PM 19.4 °F 7.2 °F 15.8 °F 86% 29.86 in 6.2 mi ENE 11.5 mph - N/A   Mostly Cloudy
10:00 PM 19.4 °F 6.0 °F 15.8 °F 86% 29.86 in - ENE 13.8 mph - N/A   Clear
10:30 PM 21.2 °F 6.8 °F 15.8 °F 80% 29.86 in - ENE 17.3 mph - N/A   Clear
11:00 PM 21.2 °F 7.3 °F 15.8 °F 80% 29.86 in - ENE 16.1 mph - N/A   Clear
11:30 PM 21.2 °F 9.5 °F 15.8 °F 80% 29.89 in - ENE 11.5 mph - N/A   Clear
11:45 PM 21.2 °F 11.7 °F 15.8 °F 80% 29.89 in 6.2 mi ENE 8.1 mph - N/A Snow Light Snow